QPF
0.01 0.01 0.00 0.01 0.01 0.02 0.02 0.02 0.02 0.01 0.00 0.00 0.00 0.00 0.01 0.01 0.01 0.01 0.01 0.02 0.02 0.01 0.01 0.01 0.02 0.02 0.02 0.02 0.02 0.02 0.02 0.02 0.02 0.02 0.02 0.02 0.02 0.01 0.01 0.01 0.01 0.01 0.01 0.01
0.01 0.00 0.00 0.01 0.01 0.01 0.01 0.01 0.01 0.01 0.01 0.01 0.01 0.01 0.01 0.01 0.02 0.03 0.02 0.02 0.01 0.01 0.01 0.01 0.02 0.02 0.02 0.02 0.01 0.02 0.02 0.02 0.02 0.01 0.01 0.01 0.01 0.01 0.01 0.00 0.00 0.01 0.01 0.01
0.02 0.01 0.01 0.01 0.01 0.01 0.01 0.01 0.01 0.01 0.01 0.01 0.01 0.01 0.01 0.01 0.02 0.04 0.03 0.02 0.02 0.01 0.01 0.01 0.01 0.02 0.02 0.02 0.02 0.02 0.02 0.02 0.01 0.01 0.01 0.01 0.01 0.01 0.00 0.00 0.00 0.01 0.01 0.01
0.03 0.02 0.02 0.01 0.00 0.01 0.01 0.01 0.01 0.01 0.01 0.01 0.01 0.02 0.02 0.02 0.02 0.02 0.02 0.02 0.02 0.02 0.01 0.01 0.01 0.01 0.02 0.02 0.02 0.02 0.01 0.01 0.01 0.01 0.01 0.01 0.01 0.01 0.01 0.01 0.01 0.01 0.01 0.01
0.04 0.03 0.01 0.01 0.00 0.00 0.01 0.01 0.01 0.01 0.01 0.01 0.01 0.01 0.01 0.02 0.02 0.02 0.02 0.02 0.02 0.02 0.01 0.01 0.01 0.01 0.01 0.02 0.02 0.02 0.02 0.01 0.01 0.01 0.01 0.01 0.01 0.01 0.01 0.01 0.01 0.01 0.01 0.01
0.04 0.03 0.02 0.01 0.00 0.00 0.01 0.01 0.01 0.01 0.01 0.01 0.01 0.02 0.02 0.02 0.02 0.01 0.01 0.01 0.01 0.01 0.01 0.01 0.01 0.01 0.02 0.02 0.02 0.02 0.01 0.01 0.01 0.01 0.01 0.01 0.02 0.02 0.02 0.02 0.01 0.01 0.01 0.01
0.03 0.03 0.02 0.01 0.01 0.01 0.02 0.02 0.01 0.01 0.01 0.01 0.02 0.02 0.02 0.01 0.01 0.01 0.01 0.01 0.01 0.01 0.01 0.01 0.01 0.01 0.02 0.03 0.02 0.02 0.01 0.01 0.01 0.01 0.01 0.01 0.02 0.02 0.02 0.02 0.01 0.01 0.01 0.01
0.02 0.03 0.02 0.01 0.01 0.02 0.02 0.02 0.01 0.02 0.02 0.02 0.02 0.01 0.01 0.01 0.01 0.01 0.01 0.01 0.01 0.01 0.01 0.01 0.01 0.02 0.03 0.03 0.03 0.02 0.01 0.01 0.01 0.01 0.02 0.02 0.02 0.03 0.02 0.02 0.02 0.01 0.01 0.01
0.01 0.02 0.02 0.01 0.01 0.02 0.02 0.02 0.02 0.02 0.02 0.02 0.02 0.01 0.01 0.01 0.01 0.01 0.01 0.01 0.01 0.01 0.01 0.01 0.01 0.02 0.02 0.02 0.02 0.02 0.02 0.02 0.02 0.01 0.02 0.02 0.02 0.03 0.03 0.02 0.01 0.01 0.01 0.00
0.01 0.01 0.01 0.01 0.01 0.02 0.01 0.01 0.01 0.01 0.02 0.01 0.01 0.01 0.01 0.01 0.01 0.01 0.01 0.01 0.02 0.02 0.02 0.02 0.02 0.01 0.01 0.02 0.02 0.02 0.02 0.02 0.02 0.02 0.02 0.02 0.02 0.02 0.02 0.02 0.01 0.01 0.01 0.00
0.01 0.01 0.01 0.01 0.01 0.01 0.01 0.01 0.01 0.01 0.01 0.01 0.01 0.01 0.01 0.01 0.01 0.01 0.01 0.01 0.02 0.02 0.02 0.02 0.02 0.02 0.02 0.02 0.02 0.02 0.02 0.02 0.02 0.02 0.02 0.02 0.03 0.02 0.02 0.01 0.01 0.01 0.01 0.01
0.01 0.01 0.01 0.01 0.01 0.01 0.01 0.01 0.01 0.01 0.01 0.01 0.01 0.01 0.01 0.01 0.01 0.01 0.01 0.01 0.02 0.02 0.02 0.02 0.02 0.02 0.02 0.02 0.01 0.02 0.02 0.02 0.02 0.02 0.02 0.02 0.03 0.03 0.03 0.02 0.02 0.02 0.01 0.01
0.01 0.01 0.01 0.01 0.01 0.01 0.01 0.01 0.01 0.01 0.01 0.01 0.01 0.01 0.01 0.01 0.01 0.01 0.01 0.01 0.02 0.02 0.02 0.02 0.02 0.02 0.03 0.02 0.02 0.01 0.01 0.02 0.02 0.02 0.02 0.02 0.02 0.03 0.03 0.02 0.02 0.01 0.01 0.01
0.01 0.01 0.01 0.01 0.01 0.01 0.01 0.01 0.01 0.01 0.01 0.01 0.01 0.01 0.01 0.01 0.01 0.01 0.01 0.01 0.02 0.02 0.02 0.02 0.02 0.03 0.03 0.03 0.02 0.02 0.02 0.02 0.02 0.02 0.02 0.02 0.02 0.03 0.02 0.02 0.02 0.02 0.01 0.01
0.00 0.01 0.01 0.01 0.01 0.01 0.01 0.00 0.00 0.00 0.00 0.00 0.00 0.00 0.01 0.01 0.01 0.01 0.01 0.01 0.02 0.02 0.02 0.02 0.02 0.02 0.03 0.02 0.02 0.02 0.02 0.02 0.01 0.01 0.01 0.02 0.02 0.03 0.03 0.02 0.02 0.01 0.01 0.01
0.00 0.00 0.00 0.00 0.01 0.01 0.01 0.00 0.00 0.00 0.00 0.00 0.00 0.00 0.01 0.01 0.01 0.01 0.01 0.01 0.02 0.02 0.02 0.01 0.01 0.02 0.02 0.02 0.02 0.02 0.01 0.01 0.01 0.01 0.01 0.01 0.02 0.03 0.03 0.02 0.01 0.01 0.01 0.01
0.00 0.00 0.00 0.00 0.00 0.00 0.00 0.00 0.00 0.00 0.00 0.00 0.01 0.01 0.01 0.01 0.01 0.01 0.01 0.01 0.01 0.01 0.02 0.02 0.02 0.02 0.02 0.01 0.01 0.01 0.01 0.01 0.01 0.01 0.01 0.01 0.02 0.02 0.02 0.02 0.01 0.01 0.01 0.01
0.00 0.00 0.00 0.00 0.00 0.00 0.00 0.00 0.00 0.00 0.00 0.00 0.01 0.00 0.00 0.01 0.01 0.01 0.01 0.01 0.01 0.01 0.01 0.01 0.02 0.02 0.02 0.01 0.01 0.01 0.01 0.01 0.01 0.01 0.01 0.02 0.02 0.02 0.02 0.01 0.01 0.00 0.00 0.01
0.00 0.00 0.00 0.00 0.00 0.00 0.00 0.00 0.00 0.00 0.00 0.00 0.00 0.00 0.01 0.01 0.01 0.01 0.01 0.01 0.01 0.01 0.01 0.01 0.01 0.02 0.02 0.01 0.01 0.01 0.01 0.01 0.01 0.01 0.01 0.01 0.01 0.01 0.01 0.01 0.00 0.00 0.01 0.01
0.00 0.00 0.00 0.00 0.00 0.00 0.00 0.00 0.00 0.00 0.00 0.00 0.00 0.01 0.01 0.01 0.00 0.01 0.01 0.01 0.01 0.01 0.01 0.01 0.01 0.02 0.02 0.01 0.01 0.01 0.01 0.01 0.01 0.01 0.01 0.01 0.01 0.01 0.01 0.01 0.01 0.01 0.01 0.01
0.00 0.00 0.00 0.00 0.00 0.00 0.00 0.00 0.00 0.00 0.00 0.00 0.01 0.01 0.01 0.01 0.01 0.01 0.01 0.01 0.01 0.01 0.01 0.01 0.01 0.01 0.01 0.01 0.01 0.01 0.01 0.01 0.01 0.01 0.01 0.01 0.01 0.01 0.01 0.01 0.01 0.01 0.01 0.01
0.00 0.00 0.00 0.00 0.00 0.00 0.00 0.00 0.00 0.00 0.00 0.01 0.01 0.01 0.01 0.01 0.01 0.01 0.01 0.01 0.01 0.02 0.02 0.02 0.02 0.01 0.02 0.02 0.01 0.01 0.01 0.01 0.01 0.01 0.01 0.01 0.01 0.01 0.01 0.01 0.01 0.01 0.01 0.01
0.00 0.00 0.00 0.00 0.00 0.00 0.00 0.00 0.00 0.00 0.01 0.01 0.01 0.01 0.01 0.01 0.01 0.01 0.02 0.02 0.02 0.02 0.02 0.02 0.02 0.02 0.02 0.02 0.01 0.01 0.01 0.01 0.01 0.01 0.01 0.01 0.01 0.01 0.01 0.01 0.01 0.01 0.01 0.01
0.00 0.00 0.00 0.00 0.00 0.00 0.00 0.00 0.00 0.00 0.00 0.01 0.01 0.01 0.01 0.01 0.01 0.01 0.02 0.02 0.02 0.02 0.02 0.02 0.02 0.02 0.02 0.01 0.01 0.01 0.01 0.01 0.01 0.01 0.01 0.01 0.01 0.01 0.01 0.01 0.01 0.01 0.01 0.01
0.00 0.00 0.00 0.00 0.01 0.01 0.00 0.00 0.00 0.00 0.00 0.00 0.00 0.01 0.01 0.01 0.01 0.01 0.01 0.01 0.01 0.01 0.01 0.01 0.01 0.01 0.01 0.01 0.01 0.01 0.01 0.01 0.01 0.01 0.01 0.01 0.01 0.01 0.01 0.01 0.01 0.01 0.01 0.01
0.00 0.00 0.00 0.01 0.01 0.01 0.01 0.00 0.00 0.00 0.00 0.00 0.00 0.00 0.00 0.00 0.00 0.01 0.01 0.01 0.01 0.01 0.01 0.00 0.00 0.01 0.01 0.01 0.01 0.01 0.01 0.01 0.01 0.01 0.01 0.01 0.01 0.01 0.01 0.01 0.01 0.01 0.01 0.01
0.00 0.00 0.00 0.00 0.00 0.00 0.00 0.00 0.00 0.00 0.00 0.00 0.00 0.00 0.00 0.00 0.00 0.00 0.00 0.00 0.00 0.00 0.00 0.00 0.00 0.00 0.00 0.00 0.00 0.00 0.00 0.01 0.01 0.01 0.01 0.01 0.01 0.01 0.01 0.01 0.01 0.01 0.01 0.01
MSLP
1029.02 1029.76 1030.33 1030.70 1030.82 1030.68 1030.32 1029.76 1029.08 1028.36 1027.67 1027.09 1026.67 1026.43 1026.36 1026.44 1026.62 1026.85 1027.08 1027.26 1027.38 1027.43 1027.42 1027.37 1027.31 1027.27 1027.26 1027.29 1027.35 1027.43 1027.51 1027.58 1027.62 1027.63 1027.61 1027.57 1027.50 1027.42 1027.32 1027.22 1027.09 1026.94 1026.76 1026.54
1029.12 1029.59 1029.84 1029.86 1029.63 1029.18 1028.57 1027.87 1027.14 1026.47 1025.92 1025.54 1025.34 1025.33 1025.47 1025.72 1026.02 1026.32 1026.59 1026.79 1026.90 1026.95 1026.94 1026.91 1026.88 1026.88 1026.90 1026.96 1027.04 1027.13 1027.22 1027.29 1027.33 1027.34 1027.34 1027.32 1027.29 1027.26 1027.23 1027.18 1027.10 1026.99 1026.82 1026.61
1029.08 1029.25 1029.16 1028.82 1028.25 1027.51 1026.69 1025.86 1025.11 1024.50 1024.08 1023.88 1023.90 1024.10 1024.43 1024.83 1025.25 1025.64 1025.95 1026.17 1026.31 1026.37 1026.40 1026.40 1026.42 1026.46 1026.52 1026.61 1026.71 1026.81 1026.88 1026.93 1026.96 1026.96 1026.95 1026.95 1026.95 1026.96 1026.98 1026.98 1026.96 1026.89 1026.76 1026.56
1028.74 1028.63 1028.23 1027.58 1026.73 1025.77 1024.80 1023.90 1023.15 1022.63 1022.34 1022.31 1022.51 1022.89 1023.37 1023.90 1024.41 1024.86 1025.21 1025.46 1025.63 1025.73 1025.80 1025.86 1025.93 1026.03 1026.14 1026.27 1026.38 1026.47 1026.54 1026.56 1026.56 1026.54 1026.52 1026.51 1026.53 1026.57 1026.63 1026.68 1026.70 1026.67 1026.58 1026.41
1027.98 1027.62 1026.98 1026.10 1025.07 1023.99 1022.96 1022.06 1021.38 1020.96 1020.83 1020.95 1021.30 1021.81 1022.40 1023.01 1023.58 1024.06 1024.44 1024.72 1024.91 1025.06 1025.18 1025.31 1025.44 1025.60 1025.77 1025.93 1026.07 1026.16 1026.21 1026.21 1026.18 1026.13 1026.09 1026.08 1026.10 1026.15 1026.23 1026.31 1026.37 1026.38 1026.32 1026.17
1026.68 1026.15 1025.36 1024.38 1023.29 1022.20 1021.21 1020.40 1019.85 1019.57 1019.58 1019.85 1020.32 1020.93 1021.58 1022.23 1022.81 1023.30 1023.69 1023.98 1024.20 1024.39 1024.56 1024.75 1024.96 1025.18 1025.40 1025.60 1025.76 1025.86 1025.90 1025.88 1025.83 1025.76 1025.70 1025.67 1025.69 1025.75 1025.83 1025.93 1026.00 1026.03 1025.98 1025.85
1024.84 1024.22 1023.39 1022.42 1021.39 1020.41 1019.56 1018.92 1018.55 1018.45 1018.61 1019.01 1019.58 1020.24 1020.92 1021.57 1022.15 1022.62 1022.99 1023.29 1023.53 1023.74 1023.97 1024.21 1024.47 1024.75 1025.02 1025.25 1025.43 1025.55 1025.59 1025.56 1025.49 1025.41 1025.34 1025.30 1025.31 1025.36 1025.44 1025.54 1025.61 1025.64 1025.59 1025.45
1022.53 1021.92 1021.15 1020.30 1019.43 1018.65 1018.03 1017.62 1017.45 1017.54 1017.86 1018.37 1019.00 1019.70 1020.38 1021.01 1021.55 1022.00 1022.35 1022.63 1022.88 1023.12 1023.38 1023.66 1023.97 1024.29 1024.60 1024.86 1025.07 1025.19 1025.24 1025.22 1025.15 1025.06 1024.99 1024.94 1024.94 1024.98 1025.05 1025.12 1025.18 1025.18 1025.11 1024.95
1019.92 1019.41 1018.79 1018.13 1017.50 1016.98 1016.62 1016.46 1016.52 1016.79 1017.25 1017.85 1018.52 1019.22 1019.89 1020.48 1020.99 1021.39 1021.72 1021.99 1022.25 1022.50 1022.78 1023.09 1023.43 1023.77 1024.10 1024.38 1024.60 1024.74 1024.80 1024.79 1024.74 1024.66 1024.59 1024.55 1024.53 1024.56 1024.60 1024.65 1024.67 1024.65 1024.54 1024.36
1017.25 1016.88 1016.47 1016.06 1015.71 1015.47 1015.37 1015.45 1015.71 1016.14 1016.70 1017.35 1018.04 1018.73 1019.36 1019.91 1020.38 1020.75 1021.06 1021.33 1021.58 1021.84 1022.14 1022.46 1022.80 1023.16 1023.49 1023.78 1024.00 1024.16 1024.23 1024.25 1024.22 1024.16 1024.10 1024.07 1024.05 1024.06 1024.08 1024.10 1024.09 1024.02 1023.88 1023.66
1014.71 1014.54 1014.36 1014.21 1014.13 1014.15 1014.30 1014.58 1014.99 1015.52 1016.14 1016.80 1017.48 1018.13 1018.72 1019.23 1019.66 1020.02 1020.32 1020.58 1020.84 1021.11 1021.40 1021.72 1022.06 1022.40 1022.73 1023.01 1023.24 1023.41 1023.50 1023.54 1023.54 1023.52 1023.49 1023.47 1023.46 1023.46 1023.47 1023.45 1023.40 1023.30 1023.13 1022.88
1012.47 1012.51 1012.56 1012.66 1012.81 1013.05 1013.38 1013.80 1014.30 1014.88 1015.50 1016.15 1016.78 1017.38 1017.92 1018.39 1018.80 1019.15 1019.44 1019.72 1019.98 1020.26 1020.55 1020.86 1021.18 1021.50 1021.81 1022.08 1022.31 1022.48 1022.60 1022.68 1022.72 1022.73 1022.74 1022.75 1022.75 1022.75 1022.75 1022.71 1022.63 1022.51 1022.31 1022.06
1010.55 1010.79 1011.06 1011.37 1011.72 1012.12 1012.57 1013.07 1013.60 1014.17 1014.76 1015.35 1015.92 1016.45 1016.95 1017.39 1017.78 1018.12 1018.43 1018.72 1018.99 1019.27 1019.56 1019.85 1020.15 1020.45 1020.73 1020.99 1021.22 1021.40 1021.55 1021.67 1021.76 1021.83 1021.88 1021.92 1021.95 1021.96 1021.95 1021.91 1021.82 1021.67 1021.48 1021.23
1008.91 1009.32 1009.78 1010.26 1010.75 1011.26 1011.78 1012.30 1012.83 1013.35 1013.87 1014.39 1014.88 1015.36 1015.81 1016.22 1016.61 1016.96 1017.28 1017.59 1017.88 1018.16 1018.44 1018.72 1018.99 1019.26 1019.53 1019.78 1020.01 1020.22 1020.40 1020.57 1020.72 1020.84 1020.95 1021.03 1021.09 1021.12 1021.12 1021.07 1020.98 1020.84 1020.66 1020.42
1007.41 1007.98 1008.58 1009.19 1009.79 1010.37 1010.92 1011.43 1011.92 1012.39 1012.84 1013.28 1013.71 1014.13 1014.54 1014.94 1015.32 1015.69 1016.03 1016.35 1016.66 1016.94 1017.22 1017.48 1017.73 1017.99 1018.23 1018.48 1018.73 1018.97 1019.20 1019.42 1019.63 1019.81 1019.98 1020.11 1020.20 1020.26 1020.27 1020.23 1020.15 1020.03 1019.87 1019.67
1005.94 1006.63 1007.34 1008.05 1008.72 1009.34 1009.90 1010.40 1010.85 1011.27 1011.65 1012.03 1012.41 1012.79 1013.18 1013.58 1013.97 1014.35 1014.71 1015.05 1015.37 1015.65 1015.92 1016.17 1016.42 1016.66 1016.90 1017.16 1017.43 1017.70 1017.99 1018.26 1018.53 1018.78 1019.00 1019.18 1019.31 1019.39 1019.42 1019.40 1019.34 1019.24 1019.11 1018.95
1004.41 1005.20 1005.99 1006.77 1007.49 1008.13 1008.70 1009.19 1009.62 1010.00 1010.35 1010.69 1011.04 1011.41 1011.80 1012.20 1012.60 1013.00 1013.38 1013.73 1014.05 1014.34 1014.60 1014.84 1015.08 1015.32 1015.57 1015.84 1016.14 1016.46 1016.79 1017.13 1017.46 1017.76 1018.03 1018.25 1018.41 1018.52 1018.57 1018.57 1018.52 1018.45 1018.35 1018.25
1002.85 1003.68 1004.53 1005.35 1006.11 1006.78 1007.36 1007.85 1008.27 1008.64 1008.98 1009.32 1009.67 1010.04 1010.43 1010.84 1011.26 1011.67 1012.07 1012.43 1012.75 1013.04 1013.30 1013.54 1013.77 1014.02 1014.28 1014.58 1014.91 1015.27 1015.65 1016.03 1016.41 1016.76 1017.06 1017.31 1017.50 1017.62 1017.69 1017.70 1017.68 1017.63 1017.57 1017.51
1001.32 1002.19 1003.06 1003.91 1004.68 1005.37 1005.97 1006.47 1006.91 1007.29 1007.64 1007.99 1008.35 1008.74 1009.15 1009.57 1010.01 1010.43 1010.83 1011.19 1011.52 1011.81 1012.06 1012.31 1012.55 1012.80 1013.08 1013.40 1013.76 1014.15 1014.57 1014.99 1015.39 1015.77 1016.10 1016.36 1016.56 1016.69 1016.77 1016.79 1016.79 1016.76 1016.74 1016.72
999.99 1000.85 1001.73 1002.58 1003.37 1004.07 1004.67 1005.19 1005.64 1006.04 1006.42 1006.79 1007.17 1007.58 1008.00 1008.44 1008.88 1009.31 1009.71 1010.07 1010.39 1010.68 1010.94 1011.19 1011.43 1011.70 1012.00 1012.34 1012.72 1013.13 1013.56 1014.00 1014.42 1014.80 1015.13 1015.40 1015.60 1015.73 1015.81 1015.84 1015.85 1015.85 1015.85 1015.86
998.98 999.83 1000.69 1001.53 1002.30 1002.99 1003.60 1004.13 1004.59 1005.01 1005.40 1005.79 1006.18 1006.60 1007.03 1007.48 1007.92 1008.34 1008.74 1009.10 1009.42 1009.71 1009.97 1010.23 1010.48 1010.76 1011.07 1011.43 1011.81 1012.23 1012.67 1013.10 1013.51 1013.88 1014.20 1014.45 1014.64 1014.76 1014.83 1014.87 1014.89 1014.91 1014.93 1014.97
998.39 999.21 1000.04 1000.85 1001.59 1002.26 1002.85 1003.37 1003.83 1004.24 1004.64 1005.03 1005.44 1005.86 1006.29 1006.73 1007.17 1007.58 1007.98 1008.33 1008.65 1008.94 1009.21 1009.47 1009.74 1010.02 1010.34 1010.69 1011.08 1011.49 1011.91 1012.32 1012.70 1013.05 1013.33 1013.56 1013.72 1013.83 1013.90 1013.94 1013.96 1013.99 1014.04 1014.10
998.24 999.03 999.82 1000.57 1001.27 1001.90 1002.46 1002.95 1003.38 1003.78 1004.17 1004.56 1004.95 1005.37 1005.79 1006.22 1006.65 1007.06 1007.44 1007.80 1008.12 1008.41 1008.69 1008.95 1009.23 1009.52 1009.84 1010.18 1010.55 1010.93 1011.32 1011.69 1012.03 1012.34 1012.59 1012.78 1012.91 1013.00 1013.06 1013.09 1013.12 1013.16 1013.21 1013.29
998.48 999.23 999.96 1000.66 1001.30 1001.87 1002.37 1002.82 1003.23 1003.61 1003.97 1004.35 1004.73 1005.13 1005.55 1005.97 1006.39 1006.79 1007.17 1007.52 1007.85 1008.15 1008.43 1008.70 1008.98 1009.27 1009.57 1009.90 1010.24 1010.58 1010.92 1011.25 1011.54 1011.79 1011.99 1012.14 1012.24 1012.31 1012.35 1012.38 1012.40 1012.44 1012.50 1012.57
998.98 999.68 1000.35 1000.99 1001.56 1002.07 1002.53 1002.93 1003.30 1003.65 1004.00 1004.36 1004.74 1005.14 1005.55 1005.96 1006.38 1006.78 1007.16 1007.51 1007.84 1008.14 1008.43 1008.70 1008.97 1009.25 1009.53 1009.83 1010.13 1010.43 1010.71 1010.98 1011.21 1011.40 1011.55 1011.66 1011.72 1011.76 1011.78 1011.79 1011.81 1011.83 1011.88 1011.94
999.61 1000.26 1000.87 1001.44 1001.95 1002.40 1002.81 1003.18 1003.52 1003.86 1004.20 1004.56 1004.94 1005.34 1005.76 1006.18 1006.60 1007.01 1007.39 1007.75 1008.07 1008.37 1008.65 1008.92 1009.17 1009.43 1009.68 1009.93 1010.19 1010.43 1010.66 1010.86 1011.03 1011.16 1011.25 1011.30 1011.32 1011.33 1011.31 1011.30 1011.29 1011.29 1011.31 1011.34
1000.26 1000.85 1001.40 1001.91 1002.36 1002.77 1003.15 1003.49 1003.83 1004.17 1004.52 1004.89 1005.29 1005.71 1006.15 1006.58 1007.01 1007.43 1007.81 1008.16 1008.48 1008.77 1009.03 1009.28 1009.50 1009.72 1009.93 1010.13 1010.33 1010.51 1010.67 1010.80 1010.91 1010.97 1011.00 1011.00 1010.97 1010.93 1010.87 1010.82 1010.77 1010.73 1010.70 1010.68
Thickness
5415 5421 5420 5422 5422 5417 5418 5422 5423 5436 5439 5458 5455 5451 5448 5445 5443 5442 5442 5441 5440 5437 5435 5434 5433 5432 5432 5432 5432 5432 5432 5433 5434 5435 5435 5436 5436 5437 5437 5438 5438 5439 5439 5439
5403 5409 5407 5411 5417 5416 5417 5419 5420 5426 5436 5448 5443 5438 5434 5433 5433 5433 5433 5433 5431 5430 5427 5426 5424 5422 5421 5421 5421 5421 5421 5422 5423 5423 5424 5425 5426 5426 5426 5426 5426 5427 5427 5428
5395 5392 5399 5405 5418 5415 5412 5413 5417 5424 5440 5435 5430 5429 5427 5426 5425 5425 5424 5423 5421 5420 5418 5417 5415 5413 5412 5411 5410 5409 5410 5411 5412 5412 5413 5414 5415 5415 5415 5415 5415 5416 5416 5416
5375 5379 5387 5425 5417 5415 5412 5414 5413 5420 5425 5422 5421 5419 5416 5416 5415 5414 5414 5413 5411 5409 5407 5405 5404 5403 5402 5401 5400 5399 5399 5400 5401 5401 5402 5403 5403 5404 5404 5404 5404 5405 5405 5406
5360 5363 5380 5406 5407 5400 5398 5406 5409 5409 5412 5410 5408 5407 5410 5410 5407 5405 5404 5402 5401 5399 5397 5395 5394 5393 5392 5391 5390 5390 5389 5390 5390 5391 5392 5392 5393 5393 5393 5393 5394 5394 5395 5395
5350 5359 5372 5405 5400 5393 5393 5397 5404 5400 5401 5398 5397 5398 5404 5402 5397 5395 5394 5393 5391 5389 5387 5386 5385 5384 5383 5382 5381 5380 5381 5381 5381 5382 5383 5383 5383 5383 5383 5383 5383 5384 5384 5384
5345 5347 5370 5389 5385 5386 5386 5397 5395 5391 5389 5388 5389 5391 5390 5388 5387 5386 5385 5384 5383 5381 5379 5377 5376 5375 5374 5373 5372 5372 5372 5372 5372 5373 5373 5373 5373 5373 5372 5372 5372 5372 5373 5373
5338 5341 5367 5379 5374 5378 5386 5385 5383 5381 5380 5378 5379 5378 5378 5377 5377 5376 5375 5374 5373 5371 5370 5369 5367 5366 5365 5364 5365 5363 5363 5363 5363 5363 5363 5364 5362 5362 5361 5361 5361 5361 5361 5361
5352 5367 5374 5369 5371 5372 5371 5372 5372 5371 5370 5370 5369 5369 5369 5368 5367 5366 5365 5364 5363 5362 5361 5360 5358 5357 5356 5356 5355 5354 5353 5353 5354 5353 5353 5353 5352 5352 5351 5350 5350 5350 5350 5350
5343 5358 5362 5361 5361 5363 5363 5363 5364 5363 5361 5361 5360 5360 5359 5359 5358 5357 5356 5355 5354 5353 5352 5351 5350 5349 5347 5347 5346 5345 5344 5344 5344 5344 5343 5343 5343 5343 5342 5341 5340 5341 5340 5340
5340 5350 5353 5357 5356 5357 5357 5356 5355 5354 5354 5353 5352 5351 5351 5350 5349 5349 5348 5347 5346 5345 5344 5343 5341 5340 5339 5338 5336 5335 5334 5334 5334 5335 5334 5333 5333 5333 5333 5333 5332 5332 5332 5331
5350 5353 5349 5354 5352 5350 5348 5348 5347 5346 5345 5344 5343 5343 5342 5341 5340 5339 5339 5339 5338 5337 5335 5334 5332 5331 5330 5329 5327 5326 5325 5325 5325 5325 5324 5324 5324 5324 5324 5324 5324 5324 5323 5323
5347 5345 5342 5343 5342 5341 5340 5340 5339 5338 5337 5336 5335 5334 5332 5332 5331 5330 5330 5329 5328 5327 5326 5325 5324 5323 5322 5321 5319 5318 5317 5317 5317 5317 5316 5315 5315 5315 5315 5316 5315 5315 5314 5315
5334 5333 5333 5335 5334 5333 5331 5331 5330 5329 5328 5327 5326 5324 5323 5322 5321 5321 5320 5320 5319 5318 5317 5316 5315 5315 5314 5313 5312 5311 5310 5310 5310 5309 5308 5307 5307 5307 5306 5306 5306 5305 5306 5306
5326 5326 5326 5325 5323 5323 5322 5321 5320 5319 5319 5317 5316 5314 5314 5312 5312 5311 5311 5310 5310 5308 5308 5307 5307 5308 5307 5306 5305 5304 5304 5303 5303 5301 5301 5300 5299 5299 5298 5297 5297 5297 5297 5297
5317 5316 5315 5315 5315 5314 5313 5312 5311 5311 5310 5308 5307 5306 5305 5303 5302 5301 5301 5300 5299 5299 5299 5299 5299 5300 5300 5299 5298 5297 5296 5297 5297 5295 5294 5293 5292 5291 5290 5289 5289 5288 5288 5288
5308 5309 5308 5308 5308 5306 5305 5304 5303 5303 5301 5299 5298 5297 5295 5294 5293 5292 5292 5291 5291 5291 5291 5291 5292 5293 5292 5292 5291 5290 5289 5289 5289 5287 5286 5285 5285 5284 5283 5282 5281 5280 5280 5281
5302 5302 5301 5300 5300 5298 5297 5295 5294 5293 5292 5291 5288 5287 5285 5285 5284 5284 5284 5283 5282 5282 5282 5283 5284 5284 5284 5284 5283 5283 5282 5281 5280 5279 5279 5278 5277 5276 5274 5274 5273 5273 5273 5273
5293 5293 5292 5293 5291 5290 5289 5287 5285 5284 5282 5281 5279 5278 5277 5276 5276 5275 5274 5273 5273 5274 5275 5276 5277 5277 5277 5277 5277 5275 5274 5274 5273 5272 5271 5271 5270 5268 5267 5266 5266 5266 5266 5266
5285 5285 5284 5283 5282 5281 5279 5278 5277 5275 5274 5272 5271 5269 5268 5268 5267 5266 5265 5265 5266 5267 5268 5269 5269 5269 5269 5269 5270 5268 5267 5266 5265 5264 5263 5262 5261 5261 5260 5260 5260 5260 5260 5260
5277 5276 5276 5274 5273 5272 5271 5270 5268 5267 5266 5264 5263 5262 5261 5260 5258 5257 5257 5258 5259 5259 5260 5262 5261 5262 5262 5262 5262 5260 5259 5258 5257 5256 5256 5255 5254 5254 5253 5253 5253 5253 5253 5253
5269 5268 5267 5265 5264 5263 5262 5261 5260 5259 5257 5256 5255 5254 5252 5251 5250 5250 5250 5250 5252 5253 5253 5253 5254 5255 5255 5255 5254 5253 5252 5251 5250 5249 5248 5248 5248 5247 5247 5246 5246 5247 5247 5247
5261 5260 5259 5258 5256 5255 5254 5253 5252 5251 5250 5249 5248 5246 5245 5244 5244 5243 5244 5244 5244 5246 5246 5246 5248 5249 5250 5247 5246 5245 5244 5243 5243 5242 5242 5241 5241 5240 5240 5240 5240 5240 5241 5241
5253 5252 5251 5249 5248 5247 5246 5246 5245 5244 5242 5241 5241 5240 5239 5238 5237 5237 5237 5238 5239 5240 5239 5240 5241 5242 5241 5239 5238 5237 5236 5236 5236 5235 5235 5234 5234 5234 5234 5234 5234 5235 5235 5235
5244 5243 5242 5241 5241 5241 5240 5239 5237 5236 5236 5235 5234 5234 5233 5232 5231 5231 5230 5230 5232 5233 5231 5232 5233 5234 5232 5230 5230 5230 5229 5229 5229 5229 5229 5228 5228 5228 5228 5229 5229 5229 5230 5230
5237 5236 5235 5235 5234 5233 5233 5232 5231 5231 5230 5229 5229 5228 5227 5226 5225 5224 5224 5224 5224 5225 5224 5223 5223 5223 5222 5222 5222 5222 5222 5222 5222 5222 5222 5222 5222 5222 5223 5223 5224 5224 5225 5225
5230 5229 5229 5229 5228 5227 5226 5226 5225 5225 5224 5223 5223 5222 5221 5220 5219 5218 5217 5217 5216 5216 5216 5215 5215 5215 5215 5215 5215 5215 5216 5216 5216 5217 5217 5217 5217 5218 5218 5219 5219 5220 5221 5222